Rome, GA

12:52 PM EST on November 15, 2019 (GMT -0500)
Russell

Weather History for KRMG - September, 2019

Change the Weather History Date:

Sunday, September 1, 2019

  Actual Average Record
Temperature  
Mean Temperature 79 °F 76 °F  
Max Temperature 91 °F 88 °F 95 °F (2011)
Min Temperature 66 °F 65 °F 55 °F (1999)
Cooling Degree Days 14 11  
Month to date cooling degree days 14 11  
Year to date cooling degree days 1773 1377  
Growing Degree Days 29 (Base 50)    
Moisture  
Dew Point 67 °F    
Average Humidity 71    
Maximum Humidity 93    
Minimum Humidity 46    
Precipitation  
Precipitation 0.00 in 0.09 in 0.19 in (2017)
Month to date precipitation 0.00 0.09  
Year to date precipitation 42.45 35.51  
Sea Level Pressure  
Sea Level Pressure 30.09 in    
Wind  
Wind Speed 2 mph ()    
Max Wind Speed 10 mph    
Max Gust Speed 14 mph    
Visibility 10.0 miles    
Events      
T = Trace of Precipitation, MM = Missing Value Source: Averaged Metar Reports

Daily Weather History Graph

Daily Weather History Graph

Search for Another Location

Airport or City:

Astronomy

Sep. 01, 2019 Rise Set
Actual Time 7:13 AM EDT 8:07 PM EDT
Civil Twilight 6:48 AM EDT 8:32 PM EDT
Nautical Twilight 6:17 AM EDT 9:02 PM EDT
Astronomical Twilight 5:46 AM EDT 9:34 PM EDT
Moon 9:38 AM EDT (9/1) 10:00 PM EDT (9/1)
Length of Visible Light 13h 44m
Length of Day
12h 53m
Waxing Crescent, 8% of the Moon is Illuminated
Sep 1
Waxing Crescent
Sep 5
First Quarter
Sep 14
Full
Sep 21
Last Quarter
Sep 28
New

Hourly Weather History & Observations

Time (EDT) Temp. Heat Index Dew Point Humidity Pressure Visibility Wind Dir Wind Speed Gust Speed Precip Events Conditions
12:53 AM 72.0 °F - 66.0 °F 81% 30.09 in 10.0 mi Calm Calm - N/A   Clear
1:53 AM 68.0 °F - 64.9 °F 90% 30.09 in 10.0 mi SSW 3.5 mph - N/A   Clear
2:53 AM 69.1 °F - 64.9 °F 87% 30.09 in 10.0 mi Calm Calm - N/A   Clear
3:53 AM 68.0 °F - 64.0 °F 87% 30.08 in 10.0 mi Calm Calm - N/A   Scattered Clouds
4:53 AM 68.0 °F - 64.0 °F 87% 30.09 in 10.0 mi Calm Calm - N/A   Clear
5:53 AM 66.9 °F - 64.0 °F 90% 30.10 in 10.0 mi Calm Calm - N/A   Clear
6:53 AM 66.9 °F - 63.0 °F 87% 30.11 in 10.0 mi Calm Calm - N/A   Clear
7:53 AM 66.9 °F - 64.0 °F 90% 30.13 in 10.0 mi NNE 3.5 mph - N/A   Clear
8:53 AM 71.1 °F - 66.0 °F 84% 30.15 in 10.0 mi NNE 3.5 mph - N/A   Scattered Clouds
9:53 AM 75.9 °F - 64.9 °F 69% 30.15 in 10.0 mi NE 4.6 mph - N/A   Scattered Clouds
10:53 AM 80.1 °F 82.3 °F 66.9 °F 64% 30.15 in 10.0 mi ENE 4.6 mph - N/A   Clear
11:53 AM 84.0 °F 88.4 °F 70.0 °F 63% 30.14 in 10.0 mi ENE 5.8 mph - N/A   Scattered Clouds
12:53 PM 87.1 °F 92.0 °F 70.0 °F 57% 30.11 in 10.0 mi Variable 5.8 mph - N/A   Scattered Clouds
1:53 PM 88.0 °F 91.4 °F 68.0 °F 51% 30.10 in 10.0 mi ESE 8.1 mph - N/A   Mostly Cloudy
2:53 PM 88.0 °F 91.4 °F 68.0 °F 51% 30.07 in 10.0 mi ESE 3.5 mph - N/A   Clear
4:53 PM 90.0 °F 92.8 °F 66.9 °F 46% 30.03 in 10.0 mi ENE 5.8 mph - N/A   Partly Cloudy
5:53 PM 88.0 °F 90.3 °F 66.0 °F 48% 30.02 in 10.0 mi ESE 6.9 mph - N/A   Mostly Cloudy
6:53 PM 89.1 °F 91.3 °F 66.0 °F 46% 30.02 in 10.0 mi SE 5.8 mph - N/A   Partly Cloudy
7:53 PM 84.9 °F 88.2 °F 68.0 °F 57% 30.02 in 10.0 mi SSE 4.6 mph - N/A   Mostly Cloudy
8:53 PM 81.0 °F 83.8 °F 68.0 °F 65% 30.03 in 10.0 mi Calm Calm - N/A   Clear
9:53 PM 78.1 °F - 68.0 °F 71% 30.05 in 10.0 mi Calm Calm - N/A   Mostly Cloudy
10:53 PM 77.0 °F - 69.1 °F 76% 30.07 in 10.0 mi Calm Calm - N/A   Mostly Cloudy
11:53 PM 73.9 °F - 69.1 °F 85% 30.07 in 10.0 mi Calm Calm - N/A   Overcast